| time (UTC) | temp F | wind direction | speed MPH | gust MPH | rain 1hr in | rain 24hr in | rain mn in | humidity % | barometer mb |
| 20260508173507 | 74 | 50 | 0.0 | 3.0 | 0.00 | 0.00 | 0.00 | 78 | 1013.3 |
| 20260508173504 | 74 | 64 | 0.0 | 3.0 | 0.00 | 0.00 | 0.00 | 78 | 1012.4 |
| 20260508173027 | 73 | 46 | 1.0 | 3.0 | 0.00 | 0.00 | 0.00 | 77 | 1013.3 |
| 20260508173004 | 73 | 346 | 1.0 | 7.0 | 0.00 | 0.00 | 0.00 | 77 | 1012.4 |
| 20260508172505 | 74 | 60 | 1.0 | 3.0 | 0.00 | 0.00 | 0.00 | 77 | 1013.5 |
| 20260508172007 | 74 | 158 | 3.0 | 6.0 | 0.00 | 0.00 | 0.00 | 77 | 1012.5 |
| 20260508171528 | 74 | 26 | 1.0 | 3.0 | 0.00 | 0.00 | 0.00 | 76 | 1013.5 |
| 20260508171524 | 74 | 327 | 1.0 | 4.0 | 0.00 | 0.00 | 0.00 | 76 | 1012.6 |
| 20260508171010 | 74 | 352 | 1.0 | 3.0 | 0.00 | 0.00 | 0.00 | 75 | 1013.4 |
| 20260508171003 | 74 | 115 | 1.0 | 4.0 | 0.00 | 0.00 | 0.00 | 75 | 1012.5 |
| 20260508170505 | 74 | 352 | 1.0 | 5.0 | 0.00 | 0.00 | 0.00 | 75 | 1013.5 |
| 20260508170019 | 74 | 75 | 0.0 | 5.0 | 0.00 | 0.00 | 0.00 | 75 | 1013.6 |
| 20260508165510 | 73 | 213 | 1.0 | 3.0 | 0.00 | 0.00 | 0.00 | 82 | 1013.8 |
| 20260508165508 | 73 | 162 | 1.0 | 3.0 | 0.00 | 0.00 | 0.00 | 82 | 1013.1 |
| 20260508165009 | 72 | 352 | 1.0 | 3.0 | 0.00 | 0.00 | 0.00 | 78 | 1013.8 |
| 20260508165004 | 72 | 321 | 1.0 | 7.0 | 0.00 | 0.00 | 0.00 | 78 | 1013.1 |
| 20260508164521 | 72 | 80 | 0.0 | 3.0 | 0.00 | 0.00 | 0.00 | 80 | 1013.9 |
| 20260508164504 | 72 | 171 | 1.0 | 7.0 | 0.00 | 0.00 | 0.00 | 80 | 1013.1 |
| 20260508164007 | 71 | 335 | 1.0 | 3.0 | 0.00 | 0.00 | 0.00 | 80 | 1014.0 |
| 20260508164004 | 71 | 329 | 1.0 | 6.0 | 0.00 | 0.00 | 0.00 | 80 | 1013.2 |
| 20260508163512 | 71 | 309 | 2.0 | 3.0 | 0.00 | 0.00 | 0.00 | 78 | 1014.0 |
| 20260508163504 | 71 | 333 | 3.0 | 6.0 | 0.00 | 0.00 | 0.00 | 78 | 1013.2 |
| 20260508163027 | 70 | 103 | 1.0 | 3.0 | 0.00 | 0.00 | 0.00 | 82 | 1014.0 |
| 20260508163012 | 70 | 98 | 2.0 | 4.0 | 0.00 | 0.00 | 0.00 | 82 | 1013.2 |
| 20260508162506 | 70 | 50 | 2.0 | 3.0 | 0.00 | 0.00 | 0.00 | 80 | 1014.1 |
| 20260508162504 | 70 | 320 | 2.0 | 4.0 | 0.00 | 0.00 | 0.00 | 80 | 1013.4 |
| 20260508162008 | 70 | 193 | 1.0 | 4.0 | 0.00 | 0.00 | 0.00 | 83 | 1014.2 |
| 20260508162006 | 70 | 65 | 1.0 | 4.0 | 0.00 | 0.00 | 0.00 | 83 | 1013.5 |
| 20260508161518 | 69 | 131 | 1.0 | 4.0 | 0.00 | 0.00 | 0.00 | 81 | 1014.3 |
| 20260508161510 | 69 | 320 | 1.0 | 2.0 | 0.00 | 0.00 | 0.00 | 81 | 1013.6 |
| 20260508161008 | 69 | 31 | 0.0 | 2.0 | 0.00 | 0.00 | 0.00 | 81 | 1013.7 |
| 20260508160508 | 69 | 72 | 1.0 | 2.0 | 0.00 | 0.00 | 0.00 | 81 | 1014.3 |
| 20260508160023 | 69 | 38 | 1.0 | 2.0 | 0.00 | 0.00 | 0.00 | 81 | 1014.4 |
| 20260508160005 | 69 | 153 | 0.0 | 4.0 | 0.00 | 0.00 | 0.00 | 81 | 1013.7 |
| 20260508155506 | 69 | 178 | 0.0 | 2.0 | 0.00 | 0.00 | 0.00 | 79 | 1014.3 |
| 20260508155009 | 68 | 60 | 0.0 | 2.0 | 0.00 | 0.00 | 0.00 | 81 | 1014.2 |
| 20260508154526 | 68 | 141 | 1.0 | 3.0 | 0.00 | 0.00 | 0.00 | 80 | 1013.7 |
| 20260508154522 | 68 | 55 | 0.0 | 2.0 | 0.00 | 0.00 | 0.00 | 80 | 1014.4 |
| 20260508154012 | 67 | 148 | 0.0 | 2.0 | 0.00 | 0.00 | 0.00 | 80 | 1014.3 |
| 20260508154005 | 67 | 98 | 1.0 | 3.0 | 0.00 | 0.00 | 0.00 | 80 | 1013.7 |
| 20260508153507 | 67 | 149 | 1.0 | 2.0 | 0.00 | 0.00 | 0.00 | 80 | 1014.3 |
| 20260508153503 | 67 | 24 | 0.0 | 3.0 | 0.00 | 0.00 | 0.00 | 80 | 1013.7 |
| 20260508153021 | 67 | 97 | 1.0 | 2.0 | 0.00 | 0.00 | 0.00 | 81 | 1014.2 |
| 20260508153009 | 67 | 59 | 0.0 | 3.0 | 0.00 | 0.00 | 0.00 | 81 | 1013.6 |
| 20260508152507 | 67 | 201 | 1.0 | 2.0 | 0.00 | 0.00 | 0.00 | 80 | 1014.2 |
| 20260508152504 | 67 | 352 | 1.0 | 3.0 | 0.00 | 0.00 | 0.00 | 80 | 1013.5 |
| 20260508152009 | 67 | 98 | 0.0 | 2.0 | 0.00 | 0.00 | 0.00 | 80 | 1014.3 |
| 20260508152006 | 67 | 64 | 0.0 | 3.0 | 0.00 | 0.00 | 0.00 | 80 | 1013.7 |
| 20260508151528 | 66 | 64 | 1.0 | 3.0 | 0.00 | 0.00 | 0.00 | 80 | 1013.8 |
| 20260508151520 | 66 | 119 | 1.0 | 3.0 | 0.00 | 0.00 | 0.00 | 80 | 1014.4 |
| 20260508151017 | 66 | 71 | 1.0 | 3.0 | 0.00 | 0.00 | 0.00 | 80 | 1014.4 |
| 20260508151006 | 66 | 94 | 0.0 | 4.0 | 0.00 | 0.00 | 0.00 | 80 | 1013.9 |
| 20260508150506 | 66 | 115 | 0.0 | 4.0 | 0.00 | 0.00 | 0.00 | 81 | 1013.7 |
| 20260508150504 | 66 | 142 | 1.0 | 3.0 | 0.00 | 0.00 | 0.00 | 81 | 1014.4 |
| 20260508150028 | 66 | 102 | 0.0 | 3.0 | 0.00 | 0.00 | 0.00 | 79 | 1013.8 |
| 20260508150020 | 66 | 33 | 1.0 | 3.0 | 0.00 | 0.00 | 0.00 | 79 | 1014.4 |
| 20260508145507 | 66 | 184 | 2.0 | 2.0 | 0.00 | 0.00 | 0.00 | 79 | 1014.4 |
| 20260508145007 | 67 | 75 | 0.0 | 3.0 | 0.00 | 0.00 | 0.00 | 80 | 1014.4 |
| 20260508145004 | 67 | 142 | 1.0 | 4.0 | 0.00 | 0.00 | 0.00 | 80 | 1013.8 |
| 20260508144535 | 66 | 75 | 1.0 | 3.0 | 0.00 | 0.00 | 0.00 | 80 | 1014.3 |
| 20260508144514 | 66 | 178 | 1.0 | 4.0 | 0.00 | 0.00 | 0.00 | 80 | 1013.7 |
| 20260508144007 | 66 | 158 | 0.0 | 3.0 | 0.00 | 0.00 | 0.00 | 81 | 1014.4 |
| 20260508143510 | 66 | 121 | 0.0 | 3.0 | 0.00 | 0.00 | 0.00 | 80 | 1014.5 |
| 20260508143024 | 66 | 128 | 1.0 | 3.0 | 0.00 | 0.00 | 0.00 | 81 | 1014.6 |
| 20260508143011 | 66 | 100 | 1.0 | 4.0 | 0.00 | 0.00 | 0.00 | 81 | 1014.1 |
| 20260508142506 | 66 | 103 | 1.0 | 5.0 | 0.00 | 0.00 | 0.00 | 81 | 1014.1 |
| 20260508142502 | 66 | 63 | 0.0 | 5.0 | 0.00 | 0.00 | 0.00 | 81 | 1014.6 |
| 20260508142004 | 65 | 137 | 0.0 | 5.0 | 0.00 | 0.00 | 0.00 | 79 | 1014.6 |
| 20260508141515 | 65 | 88 | 1.0 | 3.0 | 0.00 | 0.00 | 0.00 | 81 | 1014.1 |
| 20260508141510 | 65 | 51 | 0.0 | 3.0 | 0.00 | 0.00 | 0.00 | 81 | 1014.6 |
| 20260508141008 | 64 | 148 | 1.0 | 3.0 | 0.00 | 0.00 | 0.00 | 82 | 1014.7 |
| 20260508141004 | 64 | 346 | 1.0 | 3.0 | 0.00 | 0.00 | 0.00 | 82 | 1014.2 |
| 20260508140506 | 64 | 42 | 0.0 | 2.0 | 0.00 | 0.00 | 0.00 | 84 | 1014.9 |
| 20260508140503 | 64 | 92 | 1.0 | 3.0 | 0.00 | 0.00 | 0.00 | 84 | 1014.3 |
| 20260508140016 | 64 | 42 | 0.0 | 2.0 | 0.00 | 0.00 | 0.00 | 82 | 1015.0 |
| 20260508140014 | 64 | 53 | 0.0 | 2.0 | 0.00 | 0.00 | 0.00 | 82 | 1014.4 |
| 20260508135509 | 64 | 32 | 0.0 | 2.0 | 0.00 | 0.00 | 0.00 | 82 | 1015.1 |
| 20260508135506 | 64 | 5 | 0.0 | 2.0 | 0.00 | 0.00 | 0.00 | 82 | 1014.5 |
| 20260508135006 | 63 | 31 | 0.0 | 2.0 | 0.00 | 0.00 | 0.00 | 83 | 1015.1 |
| 20260508134520 | 63 | 352 | 0.0 | 2.0 | 0.00 | 0.00 | 0.00 | 83 | 1015.0 |
| 20260508134008 | 63 | 342 | 0.0 | 2.0 | 0.00 | 0.00 | 0.00 | 83 | 1014.4 |
| 20260508134006 | 63 | 26 | 0.0 | 2.0 | 0.00 | 0.00 | 0.00 | 83 | 1015.0 |
| 20260508133510 | 63 | 15 | 0.0 | 3.0 | 0.00 | 0.00 | 0.00 | 83 | 1014.3 |
| 20260508133506 | 63 | 64 | 0.0 | 3.0 | 0.00 | 0.00 | 0.00 | 83 | 1015.0 |
| 20260508133022 | 63 | 325 | 0.0 | 3.0 | 0.00 | 0.00 | 0.00 | 84 | 1014.3 |
| 20260508133020 | 63 | 344 | 0.0 | 3.0 | 0.00 | 0.00 | 0.00 | 84 | 1014.7 |
| 20260508132511 | 63 | 311 | 0.0 | 2.0 | 0.00 | 0.00 | 0.00 | 84 | 1014.2 |
| 20260508132506 | 63 | 86 | 0.0 | 2.0 | 0.00 | 0.00 | 0.00 | 84 | 1014.7 |
| 20260508132003 | 62 | 322 | 0.0 | 3.0 | 0.00 | 0.00 | 0.00 | 84 | 1014.2 |
| 20260508131517 | 62 | 311 | 1.0 | 4.0 | 0.00 | 0.00 | 0.00 | 84 | 1014.1 |
| 20260508131508 | 62 | 104 | 1.0 | 3.0 | 0.00 | 0.00 | 0.00 | 84 | 1014.6 |
| 20260508131005 | 62 | 44 | 0.0 | 2.0 | 0.00 | 0.00 | 0.00 | 84 | 1014.7 |
| 20260508130503 | 62 | 311 | 0.0 | 3.0 | 0.00 | 0.00 | 0.00 | 85 | 1014.1 |
| 20260508130014 | 62 | 323 | 0.0 | 3.0 | 0.00 | 0.00 | 0.00 | 85 | 1014.7 |
| 20260508125506 | 61 | 325 | 1.0 | 4.0 | 0.00 | 0.00 | 0.00 | 85 | 1014.1 |
| 20260508125010 | 61 | 307 | 2.0 | 3.0 | 0.00 | 0.00 | 0.00 | 86 | 1014.1 |
| 20260508125007 | 61 | 71 | 0.0 | 4.0 | 0.00 | 0.00 | 0.00 | 86 | 1014.6 |
| 20260508124513 | 61 | 319 | 1.0 | 4.0 | 0.00 | 0.00 | 0.00 | 86 | 1014.9 |
| 20260508124511 | 61 | 317 | 1.0 | 3.0 | 0.00 | 0.00 | 0.00 | 86 | 1014.3 |
| 20260508124010 | 61 | 346 | 1.0 | 3.0 | 0.00 | 0.00 | 0.00 | 86 | 1015.1 |
| 20260508124007 | 61 | 337 | 1.0 | 3.0 | 0.00 | 0.00 | 0.00 | 86 | 1014.5 |
| 20260508123508 | 61 | 330 | 1.0 | 3.0 | 0.00 | 0.00 | 0.00 | 86 | 1014.6 |
| 20260508123505 | 61 | 352 | 0.0 | 3.0 | 0.00 | 0.00 | 0.00 | 86 | 1015.2 |
| 20260508123042 | 61 | 329 | 1.0 | 3.0 | 0.00 | 0.00 | 0.00 | 86 | 1014.4 |
| 20260508123026 | 61 | 352 | 0.0 | 3.0 | 0.00 | 0.00 | 0.00 | 86 | 1015.0 |
| 20260508122508 | 61 | 34 | 1.0 | 3.0 | 0.00 | 0.00 | 0.00 | 86 | 1015.1 |
| 20260508122506 | 61 | 329 | 1.0 | 2.0 | 0.00 | 0.00 | 0.00 | 86 | 1014.5 |
| 20260508122012 | 61 | 320 | 0.0 | 4.0 | 0.00 | 0.00 | 0.00 | 85 | 1014.7 |
| 20260508121531 | 61 | 333 | 1.0 | 5.0 | 0.00 | 0.00 | 0.00 | 85 | 1014.7 |
| 20260508121528 | 61 | 5 | 1.0 | 4.0 | 0.00 | 0.00 | 0.00 | 85 | 1015.2 |
| 20260508121005 | 61 | 322 | 2.0 | 5.0 | 0.00 | 0.00 | 0.00 | 85 | 1014.8 |
| 20260508121003 | 61 | 5 | 1.0 | 2.0 | 0.00 | 0.00 | 0.00 | 85 | 1015.3 |
| 20260508120506 | 61 | 321 | 1.0 | 2.0 | 0.00 | 0.00 | 0.00 | 85 | 1014.8 |
| 20260508120503 | 61 | 341 | 0.0 | 2.0 | 0.00 | 0.00 | 0.00 | 85 | 1015.3 |
| 20260508120018 | 61 | 12 | 0.0 | 2.0 | 0.00 | 0.00 | 0.00 | 85 | 1015.4 |
| 20260508120012 | 61 | 321 | 0.0 | 2.0 | 0.00 | 0.00 | 0.00 | 85 | 1014.9 |
| 20260508115503 | 61 | 321 | 0.0 | 2.0 | 0.00 | 0.00 | 0.00 | 85 | 1014.9 |
| 20260508115006 | 61 | 16 | 0.0 | 2.0 | 0.00 | 0.00 | 0.00 | 85 | 1015.3 |
| 20260508114528 | 61 | 26 | 0.0 | 2.0 | 0.00 | 0.00 | 0.00 | 84 | 1015.3 |
| 20260508114519 | 61 | 321 | 0.0 | 3.0 | 0.00 | 0.00 | 0.00 | 84 | 1014.9 |
| 20260508114010 | 61 | 34 | 1.0 | 2.0 | 0.00 | 0.00 | 0.00 | 85 | 1015.2 |
| 20260508114004 | 61 | 321 | 1.0 | 3.0 | 0.00 | 0.00 | 0.00 | 85 | 1014.9 |
| 20260508113503 | 61 | 337 | 0.0 | 3.0 | 0.00 | 0.00 | 0.00 | 85 | 1014.7 |
| 20260508113023 | 61 | 5 | 1.0 | 3.0 | 0.00 | 0.00 | 0.00 | 85 | 1015.0 |
| 20260508113017 | 61 | 340 | 1.0 | 3.0 | 0.00 | 0.00 | 0.00 | 85 | 1014.6 |
| 20260508112510 | 61 | 340 | 1.0 | 3.0 | 0.00 | 0.00 | 0.00 | 85 | 1014.7 |
| 20260508112012 | 61 | 352 | 0.0 | 2.0 | 0.00 | 0.00 | 0.00 | 85 | 1014.7 |
| 20260508112003 | 61 | 340 | 1.0 | 3.0 | 0.00 | 0.00 | 0.00 | 85 | 1014.3 |
| 20260508111517 | 61 | 336 | 1.0 | 2.0 | 0.00 | 0.00 | 0.00 | 85 | 1014.3 |
| 20260508111007 | 61 | 352 | 0.0 | 2.0 | 0.00 | 0.00 | 0.00 | 85 | 1015.1 |
| 20260508111005 | 61 | 329 | 0.0 | 2.0 | 0.00 | 0.00 | 0.00 | 85 | 1014.7 |
| 20260508110506 | 61 | 352 | 0.0 | 2.0 | 0.00 | 0.00 | 0.00 | 85 | 1015.2 |
| 20260508110502 | 61 | 329 | 0.0 | 2.0 | 0.00 | 0.00 | 0.00 | 85 | 1014.8 |
| 20260508110013 | 61 | 352 | 0.0 | 2.0 | 0.00 | 0.00 | 0.00 | 84 | 1015.1 |
| 20260508110008 | 61 | 329 | 0.0 | 3.0 | 0.00 | 0.00 | 0.00 | 84 | 1014.7 |
| 20260508105503 | 61 | 341 | 1.0 | 2.0 | 0.00 | 0.00 | 0.00 | 84 | 1015.1 |
| 20260508105011 | 61 | 327 | 2.0 | 4.0 | 0.00 | 0.00 | 0.00 | 84 | 1014.5 |
| 20260508105003 | 61 | 34 | 1.0 | 4.0 | 0.00 | 0.00 | 0.00 | 84 | 1014.9 |
| 20260508104516 | 61 | 21 | 1.0 | 4.0 | 0.00 | 0.00 | 0.00 | 83 | 1015.0 |
| 20260508104513 | 61 | 334 | 1.0 | 4.0 | 0.00 | 0.00 | 0.00 | 83 | 1014.5 |
| 20260508104011 | 61 | 12 | 1.0 | 4.0 | 0.00 | 0.00 | 0.00 | 83 | 1015.0 |
| 20260508104008 | 61 | 327 | 1.0 | 4.0 | 0.00 | 0.00 | 0.00 | 83 | 1014.5 |
| 20260508103506 | 61 | 328 | 1.0 | 4.0 | 0.00 | 0.00 | 0.00 | 84 | 1015.0 |
| 20260508103020 | 61 | 83 | 1.0 | 4.0 | 0.00 | 0.00 | 0.00 | 84 | 1015.1 |
| 20260508103007 | 61 | 323 | 1.0 | 3.0 | 0.00 | 0.00 | 0.00 | 84 | 1014.7 |
| 20260508102504 | 61 | 334 | 1.0 | 3.0 | 0.00 | 0.00 | 0.00 | 84 | 1014.7 |
| 20260508102008 | 61 | 19 | 1.0 | 3.0 | 0.00 | 0.00 | 0.00 | 84 | 1015.1 |
| 20260508101531 | 61 | 11 | 0.0 | 2.0 | 0.00 | 0.00 | 0.00 | 84 | 1015.2 |
| 20260508101008 | 61 | 5 | 0.0 | 2.0 | 0.00 | 0.00 | 0.00 | 84 | 1015.2 |
| 20260508101006 | 61 | 329 | 1.0 | 2.0 | 0.00 | 0.00 | 0.00 | 84 | 1014.7 |
| 20260508100511 | 61 | 329 | 0.0 | 2.0 | 0.00 | 0.00 | 0.00 | 85 | 1014.7 |
| 20260508100503 | 61 | 17 | 0.0 | 2.0 | 0.00 | 0.00 | 0.00 | 85 | 1015.1 |
| 20260508100032 | 61 | 28 | 0.0 | 2.0 | 0.00 | 0.00 | 0.00 | 85 | 1015.1 |
| 20260508100006 | 61 | 329 | 0.0 | 2.0 | 0.00 | 0.00 | 0.00 | 85 | 1014.6 |
| 20260508095511 | 61 | 28 | 0.0 | 2.0 | 0.00 | 0.00 | 0.00 | 84 | 1015.1 |
| 20260508095505 | 61 | 329 | 1.0 | 2.0 | 0.00 | 0.00 | 0.00 | 84 | 1014.7 |
| 20260508095011 | 61 | 317 | 0.0 | 2.0 | 0.00 | 0.00 | 0.00 | 84 | 1015.2 |
| 20260508095002 | 61 | 329 | 0.0 | 2.0 | 0.00 | 0.00 | 0.00 | 84 | 1014.8 |
| 20260508094511 | 61 | 317 | 0.0 | 2.0 | 0.00 | 0.00 | 0.00 | 83 | 1015.2 |
| 20260508094007 | 61 | 323 | 0.0 | 2.0 | 0.00 | 0.00 | 0.00 | 84 | 1015.1 |
| 20260508093503 | 61 | 329 | 0.0 | 2.0 | 0.00 | 0.00 | 0.00 | 84 | 1014.6 |
| 20260508093017 | 61 | 329 | 0.0 | 2.0 | 0.00 | 0.00 | 0.00 | 84 | 1014.4 |
| 20260508092509 | 61 | 329 | 0.0 | 2.0 | 0.00 | 0.00 | 0.00 | 84 | 1014.3 |
| 20260508092507 | 61 | 60 | 0.0 | 2.0 | 0.00 | 0.00 | 0.00 | 84 | 1014.8 |
| 20260508092007 | 61 | 5 | 0.0 | 2.0 | 0.00 | 0.00 | 0.00 | 84 | 1014.8 |
| 20260508092005 | 61 | 329 | 1.0 | 2.0 | 0.00 | 0.00 | 0.00 | 84 | 1014.3 |
| 20260508091515 | 61 | 333 | 0.0 | 2.0 | 0.00 | 0.00 | 0.00 | 85 | 1014.8 |
| 20260508091511 | 61 | 329 | 0.0 | 2.0 | 0.00 | 0.00 | 0.00 | 85 | 1014.3 |
| 20260508091010 | 61 | 9 | 0.0 | 0.0 | 0.00 | 0.00 | 0.00 | 84 | 1014.9 |
| 20260508091008 | 61 | 329 | 0.0 | 2.0 | 0.00 | 0.00 | 0.00 | 84 | 1014.4 |
| 20260508090512 | 61 | 9 | 0.0 | 2.0 | 0.00 | 0.00 | 0.00 | 83 | 1015.1 |
| 20260508090507 | 61 | 329 | 0.0 | 2.0 | 0.00 | 0.00 | 0.00 | 83 | 1014.6 |
| 20260508090033 | 61 | 9 | 0.0 | 2.0 | 0.00 | 0.00 | 0.00 | 83 | 1015.0 |
| 20260508090021 | 61 | 329 | 0.0 | 2.0 | 0.00 | 0.00 | 0.00 | 83 | 1014.5 |
| 20260508085507 | 61 | 329 | 0.0 | 2.0 | 0.00 | 0.00 | 0.00 | 83 | 1014.4 |
| 20260508085503 | 61 | 9 | 0.0 | 2.0 | 0.00 | 0.00 | 0.00 | 83 | 1014.9 |
| 20260508085007 | 61 | 9 | 0.0 | 1.0 | 0.00 | 0.00 | 0.00 | 85 | 1014.8 |
| 20260508085002 | 61 | 329 | 0.0 | 2.0 | 0.00 | 0.00 | 0.00 | 85 | 1014.3 |
| 20260508084527 | 61 | 19 | 0.0 | 2.0 | 0.00 | 0.00 | 0.00 | 83 | 1015.0 |
| 20260508084508 | 61 | 329 | 0.0 | 2.0 | 0.00 | 0.00 | 0.00 | 83 | 1014.5 |
| 20260508084008 | 61 | 16 | 0.0 | 2.0 | 0.00 | 0.00 | 0.00 | 83 | 1015.0 |
| 20260508084005 | 61 | 329 | 0.0 | 2.0 | 0.00 | 0.00 | 0.00 | 83 | 1014.5 |
| 20260508083506 | 61 | 352 | 0.0 | 2.0 | 0.00 | 0.00 | 0.00 | 83 | 1015.0 |
| 20260508083016 | 61 | 352 | 0.0 | 2.0 | 0.00 | 0.00 | 0.00 | 83 | 1015.0 |
| 20260508082513 | 61 | 352 | 0.0 | 3.0 | 0.00 | 0.00 | 0.00 | 83 | 1014.7 |
| 20260508082503 | 61 | 329 | 0.0 | 3.0 | 0.00 | 0.00 | 0.00 | 83 | 1014.3 |
| 20260508082007 | 61 | 344 | 1.0 | 3.0 | 0.00 | 0.00 | 0.00 | 83 | 1014.9 |
| 20260508081521 | 61 | 329 | 1.0 | 2.0 | 0.00 | 0.00 | 0.00 | 83 | 1014.4 |
| 20260508081006 | 61 | 325 | 1.0 | 2.0 | 0.00 | 0.00 | 0.00 | 83 | 1014.3 |
| 20260508080507 | 61 | 302 | 0.0 | 2.0 | 0.00 | 0.00 | 0.00 | 83 | 1014.4 |
| 20260508080030 | 61 | 302 | 1.0 | 3.0 | 0.00 | 0.00 | 0.00 | 82 | 1014.4 |
| 20260508080020 | 61 | 30 | 0.0 | 2.0 | 0.00 | 0.00 | 0.00 | 82 | 1014.9 |
| 20260508075512 | 61 | 328 | 1.0 | 3.0 | 0.00 | 0.00 | 0.00 | 83 | 1014.3 |
| 20260508075509 | 61 | 329 | 1.0 | 2.0 | 0.00 | 0.00 | 0.00 | 83 | 1014.8 |
| 20260508075011 | 61 | 31 | 0.0 | 3.0 | 0.00 | 0.00 | 0.00 | 83 | 1014.7 |
| 20260508075002 | 61 | 327 | 1.0 | 3.0 | 0.00 | 0.00 | 0.00 | 83 | 1014.2 |
| 20260508074527 | 61 | 327 | 1.0 | 3.0 | 0.00 | 0.00 | 0.00 | 83 | 1014.2 |
| 20260508074520 | 61 | 5 | 1.0 | 3.0 | 0.00 | 0.00 | 0.00 | 83 | 1014.7 |
| 20260508074007 | 61 | 32 | 0.0 | 2.0 | 0.00 | 0.00 | 0.00 | 83 | 1014.7 |
| 20260508073509 | 61 | 24 | 0.0 | 2.0 | 0.00 | 0.00 | 0.00 | 83 | 1015.0 |
| 20260508073502 | 61 | 332 | 1.0 | 4.0 | 0.00 | 0.00 | 0.00 | 83 | 1014.5 |
| 20260508073028 | 61 | 306 | 1.0 | 3.0 | 0.00 | 0.00 | 0.00 | 83 | 1014.9 |
| 20260508073012 | 61 | 327 | 1.0 | 4.0 | 0.00 | 0.00 | 0.00 | 83 | 1014.4 |
| 20260508072508 | 61 | 67 | 1.0 | 3.0 | 0.00 | 0.00 | 0.00 | 84 | 1014.8 |
| 20260508072503 | 61 | 333 | 1.0 | 3.0 | 0.00 | 0.00 | 0.00 | 84 | 1014.3 |
| 20260508072009 | 61 | 350 | 0.0 | 2.0 | 0.00 | 0.00 | 0.00 | 84 | 1015.0 |
| 20260508072007 | 61 | 317 | 1.0 | 2.0 | 0.00 | 0.00 | 0.00 | 84 | 1014.5 |
| 20260508071524 | 61 | 322 | 1.0 | 2.0 | 0.00 | 0.00 | 0.00 | 83 | 1014.7 |
| 20260508071516 | 61 | 117 | 0.0 | 2.0 | 0.00 | 0.00 | 0.00 | 83 | 1015.2 |
| 20260508071008 | 61 | 319 | 1.0 | 3.0 | 0.00 | 0.00 | 0.00 | 84 | 1015.0 |
| 20260508071003 | 61 | 12 | 0.0 | 3.0 | 0.00 | 0.00 | 0.00 | 84 | 1015.4 |
| 20260508070512 | 61 | 319 | 0.0 | 2.0 | 0.00 | 0.00 | 0.00 | 84 | 1015.2 |
| 20260508070506 | 61 | 22 | 0.0 | 3.0 | 0.00 | 0.00 | 0.00 | 84 | 1015.7 |
| 20260508070026 | 61 | 319 | 1.0 | 2.0 | 0.00 | 0.00 | 0.00 | 83 | 1015.2 |
| 20260508070024 | 61 | 26 | 0.0 | 3.0 | 0.00 | 0.00 | 0.00 | 83 | 1015.7 |
| 20260508065509 | 61 | 352 | 0.0 | 2.0 | 0.00 | 0.00 | 0.00 | 83 | 1015.8 |
| 20260508065503 | 61 | 319 | 0.0 | 2.0 | 0.00 | 0.00 | 0.00 | 83 | 1015.3 |
| 20260508065007 | 61 | 319 | 0.0 | 2.0 | 0.00 | 0.00 | 0.00 | 84 | 1015.4 |
| 20260508064546 | 61 | 12 | 0.0 | 2.0 | 0.00 | 0.00 | 0.00 | 83 | 1015.7 |
| 20260508064526 | 61 | 319 | 0.0 | 2.0 | 0.00 | 0.00 | 0.00 | 83 | 1015.3 |
| 20260508064010 | 61 | 12 | 0.0 | 2.0 | 0.00 | 0.00 | 0.00 | 84 | 1015.9 |
| 20260508064007 | 61 | 319 | 0.0 | 2.0 | 0.00 | 0.00 | 0.00 | 84 | 1015.4 |
| 20260508063508 | 61 | 319 | 0.0 | 2.0 | 0.00 | 0.00 | 0.00 | 84 | 1015.4 |
| 20260508063027 | 61 | 17 | 0.0 | 2.0 | 0.00 | 0.00 | 0.00 | 83 | 1015.9 |
| 20260508062511 | 61 | 17 | 0.0 | 2.0 | 0.00 | 0.00 | 0.00 | 83 | 1016.0 |
| 20260508062503 | 61 | 319 | 0.0 | 2.0 | 0.00 | 0.00 | 0.00 | 83 | 1015.5 |
| 20260508062013 | 61 | 20 | 0.0 | 2.0 | 0.00 | 0.00 | 0.00 | 84 | 1016.0 |
| 20260508062005 | 61 | 319 | 0.0 | 2.0 | 0.00 | 0.00 | 0.00 | 84 | 1015.5 |
| 20260508061521 | 61 | 13 | 0.0 | 2.0 | 0.00 | 0.00 | 0.00 | 84 | 1016.1 |
| 20260508061515 | 61 | 319 | 0.0 | 2.0 | 0.00 | 0.00 | 0.00 | 84 | 1015.7 |
| 20260508061009 | 61 | 319 | 1.0 | 2.0 | 0.00 | 0.00 | 0.00 | 85 | 1015.6 |
| 20260508061006 | 61 | 330 | 0.0 | 2.0 | 0.00 | 0.00 | 0.00 | 85 | 1016.1 |
| 20260508060508 | 61 | 319 | 0.0 | 2.0 | 0.00 | 0.00 | 0.00 | 84 | 1015.8 |
| 20260508060505 | 61 | 342 | 0.0 | 3.0 | 0.00 | 0.00 | 0.00 | 84 | 1016.3 |
| 20260508060019 | 60 | 315 | 0.0 | 3.0 | 0.00 | 0.00 | 0.00 | 85 | 1015.7 |
| 20260508055508 | 60 | 315 | 0.0 | 3.0 | 0.00 | 0.00 | 0.00 | 85 | 1015.4 |
| 20260508055505 | 60 | 352 | 0.0 | 3.0 | 0.00 | 0.00 | 0.00 | 85 | 1015.9 |
| 20260508055006 | 60 | 329 | 0.0 | 3.0 | 0.00 | 0.00 | 0.00 | 85 | 1015.4 |
| 20260508054540 | 60 | 24 | 0.0 | 2.0 | 0.00 | 0.00 | 0.00 | 85 | 1015.6 |
| 20260508054513 | 60 | 329 | 1.0 | 3.0 | 0.00 | 0.00 | 0.00 | 85 | 1015.1 |
| 20260508054007 | 60 | 329 | 0.0 | 2.0 | 0.00 | 0.00 | 0.00 | 85 | 1015.2 |
| 20260508053509 | 60 | 329 | 1.0 | 2.0 | 0.00 | 0.00 | 0.00 | 85 | 1014.9 |
| 20260508053028 | 60 | 15 | 1.0 | 2.0 | 0.00 | 0.00 | 0.00 | 86 | 1015.4 |
| 20260508052507 | 60 | 28 | 0.0 | 2.0 | 0.00 | 0.00 | 0.00 | 85 | 1015.7 |
| 20260508052011 | 60 | 325 | 0.0 | 2.0 | 0.00 | 0.00 | 0.00 | 85 | 1015.3 |
| 20260508051530 | 60 | 5 | 0.0 | 2.0 | 0.00 | 0.00 | 0.00 | 85 | 1015.6 |
| 20260508051528 | 60 | 12 | 1.0 | 2.0 | 0.00 | 0.00 | 0.00 | 85 | 1015.1 |
| 20260508051010 | 60 | 352 | 0.0 | 2.0 | 0.00 | 0.00 | 0.00 | 86 | 1015.4 |
| 20260508051005 | 60 | 59 | 0.0 | 2.0 | 0.00 | 0.00 | 0.00 | 86 | 1014.8 |
| 20260508050507 | 60 | 37 | 0.0 | 2.0 | 0.00 | 0.00 | 0.00 | 85 | 1015.4 |
| 20260508050505 | 60 | 303 | 0.0 | 2.0 | 0.00 | 0.00 | 0.00 | 86 | 1014.9 |
| 20260508050031 | 60 | 38 | 0.0 | 2.0 | 0.00 | 0.00 | 0.00 | 86 | 1015.8 |
| 20260508050019 | 60 | 302 | 0.0 | 2.0 | 0.00 | 0.00 | 0.00 | 86 | 1015.3 |
| 20260508045512 | 60 | 281 | 0.0 | 2.0 | 0.00 | 0.00 | 0.00 | 86 | 1015.5 |
| 20260508045507 | 60 | 38 | 0.0 | 2.0 | 0.00 | 0.00 | 0.00 | 86 | 1016.0 |
| 20260508045007 | 59 | 38 | 0.0 | 2.0 | 0.00 | 0.00 | 0.00 | 86 | 1015.7 |
| 20260508045004 | 59 | 281 | 0.0 | 2.0 | 0.00 | 0.00 | 0.00 | 86 | 1015.2 |
| 20260508044525 | 59 | 264 | 0.0 | 2.0 | 0.00 | 0.00 | 0.00 | 86 | 1015.2 |
| 20260508044504 | 59 | 38 | 0.0 | 2.0 | 0.00 | 0.00 | 0.00 | 86 | 1015.7 |
| 20260508044008 | 60 | 264 | 0.0 | 2.0 | 0.00 | 0.00 | 0.00 | 85 | 1015.3 |
| 20260508044003 | 60 | 38 | 0.0 | 2.0 | 0.00 | 0.00 | 0.00 | 85 | 1015.8 |
| 20260508043514 | 60 | 264 | 0.0 | 2.0 | 0.00 | 0.00 | 0.00 | 85 | 1015.5 |
| 20260508043502 | 60 | 38 | 0.0 | 2.0 | 0.00 | 0.00 | 0.00 | 85 | 1016.0 |
| 20260508043024 | 60 | 264 | 0.0 | 2.0 | 0.00 | 0.00 | 0.00 | 85 | 1015.6 |
| 20260508043012 | 60 | 38 | 0.0 | 2.0 | 0.00 | 0.00 | 0.00 | 84 | 1016.1 |
| 20260508042507 | 60 | 264 | 0.0 | 2.0 | 0.00 | 0.00 | 0.00 | 84 | 1015.9 |
| 20260508042503 | 60 | 38 | 0.0 | 2.0 | 0.00 | 0.00 | 0.00 | 84 | 1016.4 |
| 20260508042012 | 60 | 264 | 0.0 | 2.0 | 0.00 | 0.00 | 0.00 | 84 | 1015.9 |
| 20260508042005 | 60 | 38 | 0.0 | 2.0 | 0.00 | 0.00 | 0.00 | 84 | 1016.5 |
| 20260508041518 | 60 | 264 | 0.0 | 2.0 | 0.00 | 0.00 | 0.00 | 85 | 1016.1 |
| 20260508041512 | 60 | 38 | 0.0 | 2.0 | 0.00 | 0.00 | 0.00 | 85 | 1016.6 |
| 20260508041008 | 60 | 264 | 0.0 | 2.0 | 0.00 | 0.00 | 0.00 | 85 | 1016.3 |
| 20260508041003 | 60 | 38 | 0.0 | 2.0 | 0.00 | 0.00 | 0.00 | 85 | 1016.8 |
| 20260508040516 | 60 | 264 | 0.0 | 2.0 | 0.00 | 0.00 | 0.00 | 84 | 1016.5 |
| 20260508040504 | 60 | 38 | 0.0 | 0.0 | 0.00 | 0.00 | 0.00 | 84 | 1017.0 |
| 20260508040031 | 60 | 264 | 0.0 | 2.0 | 0.00 | 0.00 | 0.00 | 84 | 1016.4 |
| 20260508040017 | 60 | 38 | 0.0 | 2.0 | 0.00 | 0.00 | 0.00 | 84 | 1016.9 |
| 20260508035508 | 60 | 38 | 0.0 | 2.0 | 0.00 | 0.00 | 0.00 | 84 | 1016.8 |
| 20260508035505 | 60 | 264 | 1.0 | 2.0 | 0.00 | 0.00 | 0.00 | 84 | 1016.4 |
| 20260508035009 | 60 | 295 | 0.0 | 2.0 | 0.00 | 0.00 | 0.00 | 84 | 1016.1 |
| 20260508035004 | 60 | 38 | 0.0 | 2.0 | 0.00 | 0.00 | 0.00 | 84 | 1016.6 |
| 20260508034528 | 60 | 38 | 0.0 | 2.0 | 0.00 | 0.00 | 0.00 | 83 | 1016.6 |
| 20260508034520 | 60 | 295 | 0.0 | 2.0 | 0.00 | 0.00 | 0.00 | 83 | 1016.0 |
| 20260508034008 | 60 | 306 | 0.0 | 2.0 | 0.00 | 0.00 | 0.00 | 84 | 1016.1 |
| 20260508033516 | 60 | 316 | 0.0 | 2.0 | 0.00 | 0.00 | 0.00 | 83 | 1015.8 |
| 20260508033502 | 60 | 38 | 0.0 | 2.0 | 0.00 | 0.00 | 0.00 | 83 | 1016.4 |
| 20260508033023 | 60 | 316 | 0.0 | 2.0 | 0.00 | 0.00 | 0.00 | 82 | 1015.6 |
| 20260508033006 | 60 | 38 | 0.0 | 2.0 | 0.00 | 0.00 | 0.00 | 82 | 1016.2 |
| 20260508032512 | 60 | 316 | 0.0 | 2.0 | 0.00 | 0.00 | 0.00 | 82 | 1015.6 |
| 20260508032504 | 60 | 38 | 0.0 | 2.0 | 0.00 | 0.00 | 0.00 | 82 | 1016.3 |
| 20260508032015 | 61 | 316 | 0.0 | 2.0 | 0.00 | 0.00 | 0.00 | 82 | 1015.7 |
| 20260508032003 | 61 | 38 | 0.0 | 2.0 | 0.00 | 0.00 | 0.00 | 82 | 1016.3 |
| 20260508031527 | 61 | 316 | 0.0 | 2.0 | 0.00 | 0.00 | 0.00 | 82 | 1015.8 |
| 20260508031508 | 61 | 10 | 0.0 | 2.0 | 0.00 | 0.00 | 0.00 | 82 | 1016.4 |
| 20260508031008 | 61 | 305 | 1.0 | 2.0 | 0.00 | 0.00 | 0.00 | 81 | 1015.6 |
| 20260508031002 | 61 | 155 | 0.0 | 2.0 | 0.00 | 0.00 | 0.00 | 81 | 1016.2 |
| 20260508030508 | 61 | 157 | 0.0 | 2.0 | 0.00 | 0.00 | 0.00 | 79 | 1016.1 |
| 20260508030505 | 61 | 305 | 0.0 | 2.0 | 0.00 | 0.00 | 0.00 | 79 | 1015.5 |
| 20260508030014 | 61 | 138 | 0.0 | 2.0 | 0.00 | 0.00 | 0.00 | 79 | 1015.4 |
| 20260508030004 | 61 | 352 | 0.0 | 2.0 | 0.00 | 0.00 | 0.00 | 79 | 1014.7 |
| 20260508025507 | 61 | 128 | 0.0 | 2.0 | 0.00 | 0.00 | 0.00 | 79 | 1015.2 |
| 20260508025504 | 61 | 13 | 0.0 | 2.0 | 0.00 | 0.00 | 0.00 | 79 | 1014.5 |
| 20260508025010 | 61 | 13 | 0.0 | 2.0 | 0.00 | 0.00 | 0.00 | 79 | 1014.6 |
| 20260508025003 | 61 | 118 | 0.0 | 2.0 | 0.00 | 0.00 | 0.00 | 79 | 1015.3 |
| 20260508024522 | 61 | 343 | 1.0 | 2.0 | 0.00 | 0.00 | 0.00 | 79 | 1014.6 |
| 20260508024520 | 61 | 119 | 0.0 | 2.0 | 0.00 | 0.00 | 0.00 | 79 | 1015.2 |
| 20260508024003 | 61 | 119 | 1.0 | 2.0 | 0.00 | 0.00 | 0.00 | 79 | 1015.0 |
| 20260508023504 | 61 | 36 | 0.0 | 2.0 | 0.00 | 0.00 | 0.00 | 79 | 1014.9 |
| 20260508023022 | 61 | 159 | 0.0 | 2.0 | 0.00 | 0.00 | 0.00 | 79 | 1014.7 |
| 20260508023004 | 61 | 63 | 0.0 | 3.0 | 0.00 | 0.00 | 0.00 | 79 | 1014.0 |
| 20260508022509 | 61 | 120 | 0.0 | 2.0 | 0.00 | 0.00 | 0.00 | 80 | 1014.7 |
| 20260508022503 | 61 | 74 | 0.0 | 3.0 | 0.00 | 0.00 | 0.00 | 80 | 1014.0 |
| 20260508022006 | 62 | 76 | 0.0 | 3.0 | 0.00 | 0.00 | 0.00 | 78 | 1014.9 |
| 20260508022004 | 62 | 70 | 0.0 | 2.0 | 0.00 | 0.00 | 0.00 | 78 | 1014.1 |
| 20260508021515 | 62 | 70 | 0.0 | 2.0 | 0.00 | 0.00 | 0.00 | 79 | 1014.4 |
| 20260508021506 | 62 | 167 | 0.0 | 3.0 | 0.00 | 0.00 | 0.00 | 79 | 1015.1 |
| 20260508021003 | 62 | 63 | 0.0 | 2.0 | 0.00 | 0.00 | 0.00 | 78 | 1015.2 |
| 20260508020505 | 62 | 345 | 1.0 | 2.0 | 0.00 | 0.00 | 0.00 | 78 | 1014.4 |
| 20260508020503 | 62 | 342 | 1.0 | 2.0 | 0.00 | 0.00 | 0.00 | 78 | 1015.1 |
| 20260508020013 | 62 | 167 | 0.0 | 2.0 | 0.00 | 0.00 | 0.00 | 78 | 1015.0 |
| 20260508015506 | 61 | 64 | 1.0 | 3.0 | 0.00 | 0.00 | 0.00 | 80 | 1014.3 |
| 20260508015503 | 61 | 83 | 1.0 | 2.0 | 0.00 | 0.00 | 0.00 | 80 | 1015.1 |
| 20260508015010 | 62 | 342 | 0.0 | 2.0 | 0.00 | 0.00 | 0.00 | 78 | 1015.7 |
| 20260508015002 | 62 | 329 | 1.0 | 3.0 | 0.00 | 0.00 | 0.00 | 78 | 1015.1 |
| 20260508014508 | 62 | 26 | 0.0 | 2.0 | 0.00 | 0.00 | 0.00 | 79 | 1015.8 |
| 20260508014010 | 62 | 327 | 0.0 | 2.0 | 0.00 | 0.00 | 0.00 | 78 | 1015.6 |
| 20260508014008 | 62 | 337 | 0.0 | 2.0 | 0.00 | 0.00 | 0.00 | 78 | 1015.0 |
| 20260508013512 | 62 | 337 | 0.0 | 4.0 | 0.00 | 0.00 | 0.00 | 79 | 1014.6 |
| 20260508013507 | 62 | 23 | 0.0 | 2.0 | 0.00 | 0.00 | 0.00 | 79 | 1015.3 |
| 20260508013007 | 62 | 331 | 1.0 | 4.0 | 0.00 | 0.00 | 0.00 | 78 | 1014.3 |
| 20260508012506 | 62 | 150 | 0.0 | 2.0 | 0.00 | 0.00 | 0.00 | 77 | 1014.8 |
| 20260508012012 | 62 | 126 | 0.0 | 2.0 | 0.00 | 0.00 | 0.00 | 78 | 1015.1 |
| 20260508012005 | 62 | 327 | 0.0 | 3.0 | 0.00 | 0.00 | 0.00 | 78 | 1014.3 |
| 20260508011530 | 62 | 13 | 0.0 | 2.0 | 0.00 | 0.00 | 0.00 | 77 | 1015.1 |
| 20260508011505 | 62 | 319 | 1.0 | 2.0 | 0.00 | 0.00 | 0.00 | 77 | 1014.4 |
| 20260508011003 | 62 | 76 | 0.0 | 2.0 | 0.00 | 0.00 | 0.00 | 78 | 1015.3 |
| 20260508010505 | 62 | 360 | 0.0 | 2.0 | 0.00 | 0.00 | 0.00 | 76 | 1015.6 |
| 20260508010503 | 62 | 331 | 1.0 | 2.0 | 0.00 | 0.00 | 0.00 | 76 | 1015.0 |
| 20260508010021 | 62 | 352 | 1.0 | 2.0 | 0.00 | 0.00 | 0.00 | 76 | 1015.7 |
| 20260508010014 | 62 | 336 | 0.0 | 2.0 | 0.00 | 0.00 | 0.00 | 76 | 1015.0 |
| 20260508005505 | 63 | 322 | 0.0 | 4.0 | 0.00 | 0.00 | 0.00 | 77 | 1015.1 |
| 20260508005503 | 63 | 332 | 0.0 | 4.0 | 0.00 | 0.00 | 0.00 | 77 | 1015.7 |
| 20260508005006 | 63 | 319 | 1.0 | 3.0 | 0.00 | 0.00 | 0.00 | 75 | 1015.2 |
| 20260508005004 | 63 | 329 | 1.0 | 4.0 | 0.00 | 0.00 | 0.00 | 75 | 1015.9 |
| 20260508004529 | 63 | 76 | 0.0 | 2.0 | 0.00 | 0.00 | 0.00 | 76 | 1015.9 |
| 20260508004527 | 63 | 331 | 0.0 | 3.0 | 0.00 | 0.00 | 0.00 | 76 | 1015.2 |
| 20260508004008 | 63 | 334 | 0.0 | 2.0 | 0.00 | 0.00 | 0.00 | 74 | 1015.6 |
| 20260508003507 | 63 | 334 | 0.0 | 4.0 | 0.00 | 0.00 | 0.00 | 75 | 1015.4 |
| 20260508003503 | 63 | 120 | 0.0 | 3.0 | 0.00 | 0.00 | 0.00 | 75 | 1016.1 |
| 20260508003021 | 63 | 332 | 1.0 | 4.0 | 0.00 | 0.00 | 0.00 | 75 | 1015.5 |
| 20260508003014 | 63 | 352 | 0.0 | 3.0 | 0.00 | 0.00 | 0.00 | 75 | 1016.1 |
| 20260508002508 | 63 | 336 | 0.0 | 3.0 | 0.00 | 0.00 | 0.00 | 76 | 1015.2 |
| 20260508002003 | 63 | 326 | 0.0 | 3.0 | 0.00 | 0.00 | 0.00 | 74 | 1016.0 |
| 20260508001517 | 64 | 323 | 1.0 | 3.0 | 0.00 | 0.00 | 0.00 | 74 | 1015.4 |
| 20260508001511 | 64 | 5 | 1.0 | 3.0 | 0.00 | 0.00 | 0.00 | 74 | 1016.0 |
| 20260508001009 | 64 | 331 | 1.0 | 3.0 | 0.00 | 0.00 | 0.00 | 73 | 1015.7 |
| 20260508001007 | 64 | 350 | 1.0 | 2.0 | 0.00 | 0.00 | 0.00 | 73 | 1016.3 |
| 20260508000511 | 64 | 57 | 1.0 | 3.0 | 0.00 | 0.00 | 0.00 | 74 | 1016.3 |
| 20260508000504 | 64 | 342 | 0.0 | 3.0 | 0.00 | 0.00 | 0.00 | 74 | 1015.7 |
| 20260508000008 | 64 | 348 | 1.0 | 4.0 | 0.00 | 0.00 | 0.00 | 72 | 1016.6 |
| 20260507235506 | 64 | 32 | 1.0 | 4.0 | 0.00 | 0.00 | 0.00 | 71 | 1016.7 |
| 20260507235504 | 64 | 331 | 1.0 | 4.0 | 0.00 | 0.00 | 0.00 | 71 | 1016.1 |
| 20260507235006 | 64 | 36 | 1.0 | 4.0 | 0.00 | 0.00 | 0.00 | 73 | 1016.5 |
| 20260507235004 | 64 | 331 | 1.0 | 4.0 | 0.00 | 0.00 | 0.00 | 73 | 1016.0 |
| 20260507234513 | 64 | 32 | 0.0 | 5.0 | 0.00 | 0.00 | 0.00 | 71 | 1016.4 |
| 20260507234509 | 64 | 36 | 0.0 | 5.0 | 0.00 | 0.00 | 0.00 | 71 | 1015.8 |
| 20260507234005 | 64 | 5 | 2.0 | 5.0 | 0.00 | 0.00 | 0.00 | 71 | 1016.3 |
| 20260507233507 | 65 | 5 | 0.0 | 4.0 | 0.00 | 0.00 | 0.00 | 71 | 1016.2 |
| 20260507233504 | 65 | 336 | 1.0 | 5.0 | 0.00 | 0.00 | 0.00 | 71 | 1015.6 |
| 20260507233028 | 65 | 331 | 1.0 | 5.0 | 0.00 | 0.00 | 0.00 | 70 | 1015.8 |
| 20260507233023 | 65 | 14 | 0.0 | 4.0 | 0.00 | 0.00 | 0.00 | 70 | 1016.4 |
| 20260507232504 | 65 | 20 | 1.0 | 3.0 | 0.00 | 0.00 | 0.00 | 70 | 1016.1 |
| 20260507232012 | 65 | 327 | 1.0 | 4.0 | 0.00 | 0.00 | 0.00 | 71 | 1015.6 |
| 20260507232007 | 65 | 321 | 0.0 | 3.0 | 0.00 | 0.00 | 0.00 | 71 | 1016.2 |
| 20260507231526 | 65 | 327 | 2.0 | 5.0 | 0.00 | 0.00 | 0.00 | 69 | 1015.6 |
| 20260507231521 | 65 | 360 | 1.0 | 3.0 | 0.00 | 0.00 | 0.00 | 69 | 1016.3 |
| 20260507231007 | 65 | 338 | 1.0 | 5.0 | 0.00 | 0.00 | 0.00 | 70 | 1016.6 |
| 20260507230507 | 65 | 325 | 3.0 | 6.0 | 0.00 | 0.00 | 0.00 | 70 | 1016.0 |
| 20260507230504 | 65 | 5 | 2.0 | 5.0 | 0.00 | 0.00 | 0.00 | 70 | 1016.5 |
| 20260507230024 | 65 | 320 | 1.0 | 6.0 | 0.00 | 0.00 | 0.00 | 71 | 1016.0 |
| 20260507230020 | 65 | 55 | 1.0 | 5.0 | 0.00 | 0.00 | 0.00 | 71 | 1016.7 |
| 20260507225508 | 66 | 350 | 2.0 | 5.0 | 0.00 | 0.00 | 0.00 | 70 | 1016.9 |
| 20260507225504 | 66 | 336 | 2.0 | 5.0 | 0.00 | 0.00 | 0.00 | 70 | 1016.3 |
| 20260507225004 | 65 | 346 | 1.0 | 5.0 | 0.00 | 0.00 | 0.00 | 69 | 1016.4 |
| 20260507224517 | 66 | 348 | 2.0 | 8.0 | 0.00 | 0.00 | 0.00 | 68 | 1017.1 |
| 20260507224511 | 66 | 335 | 2.0 | 8.0 | 0.00 | 0.00 | 0.00 | 68 | 1016.5 |
| 20260507224004 | 66 | 320 | 2.0 | 9.0 | 0.00 | 0.00 | 0.00 | 68 | 1016.5 |
| 20260507224002 | 66 | 320 | 2.0 | 9.0 | 0.00 | 0.00 | 0.00 | 68 | 1017.1 |
| 20260507223504 | 66 | 221 | 2.0 | 9.0 | 0.00 | 0.00 | 0.00 | 68 | 1017.0 |
| 20260507223016 | 66 | 51 | 2.0 | 7.0 | 0.00 | 0.00 | 0.00 | 68 | 1017.2 |
| 20260507222516 | 66 | 13 | 1.0 | 4.0 | 0.00 | 0.00 | 0.00 | 68 | 1016.9 |
| 20260507222505 | 66 | 331 | 1.0 | 5.0 | 0.00 | 0.00 | 0.00 | 68 | 1016.3 |
| 20260507222007 | 66 | 337 | 1.0 | 4.0 | 0.00 | 0.00 | 0.00 | 69 | 1017.1 |
| 20260507221517 | 66 | 334 | 2.0 | 4.0 | 0.00 | 0.00 | 0.00 | 69 | 1016.2 |
| 20260507221511 | 66 | 346 | 2.0 | 4.0 | 0.00 | 0.00 | 0.00 | 69 | 1016.8 |
| 20260507221008 | 66 | 71 | 2.0 | 9.0 | 0.00 | 0.00 | 0.00 | 68 | 1015.8 |
| 20260507221005 | 66 | 11 | 2.0 | 6.0 | 0.00 | 0.00 | 0.00 | 68 | 1016.4 |
| 20260507220517 | 66 | 330 | 0.0 | 10.0 | 0.00 | 0.00 | 0.00 | 70 | 1016.5 |
| 20260507220509 | 66 | 331 | 1.0 | 10.0 | 0.00 | 0.00 | 0.00 | 70 | 1015.8 |
| 20260507220025 | 66 | 336 | 2.0 | 10.0 | 0.00 | 0.00 | 0.00 | 69 | 1015.9 |
| 20260507220023 | 66 | 37 | 1.0 | 10.0 | 0.00 | 0.00 | 0.00 | 69 | 1016.5 |
| 20260507215510 | 66 | 28 | 2.0 | 5.0 | 0.00 | 0.00 | 0.00 | 66 | 1016.8 |
| 20260507215506 | 66 | 333 | 2.0 | 8.0 | 0.00 | 0.00 | 0.00 | 66 | 1016.3 |
| 20260507215009 | 67 | 346 | 2.0 | 11.0 | 0.00 | 0.00 | 0.00 | 68 | 1016.0 |
| 20260507215007 | 67 | 298 | 1.0 | 11.0 | 0.00 | 0.00 | 0.00 | 68 | 1016.5 |
| 20260507214529 | 67 | 352 | 3.0 | 11.0 | 0.00 | 0.00 | 0.00 | 67 | 1016.6 |
| 20260507214003 | 67 | 16 | 2.0 | 8.0 | 0.00 | 0.00 | 0.00 | 68 | 1017.0 |
| 20260507213503 | 67 | 323 | 1.0 | 10.0 | 0.00 | 0.00 | 0.00 | 68 | 1016.3 |
| 20260507213014 | 66 | 27 | 2.0 | 10.0 | 0.00 | 0.00 | 0.00 | 67 | 1016.0 |
| 20260507213011 | 66 | 346 | 2.0 | 10.0 | 0.00 | 0.00 | 0.00 | 67 | 1016.6 |
| 20260507212508 | 66 | 41 | 3.0 | 6.0 | 0.00 | 0.00 | 0.00 | 67 | 1016.7 |
| 20260507212505 | 66 | 18 | 3.0 | 6.0 | 0.00 | 0.00 | 0.00 | 67 | 1016.1 |
| 20260507212008 | 66 | 80 | 2.0 | 8.0 | 0.00 | 0.00 | 0.00 | 69 | 1016.7 |
| 20260507212005 | 66 | 331 | 2.0 | 8.0 | 0.00 | 0.00 | 0.00 | 69 | 1016.1 |
| 20260507211523 | 66 | 13 | 3.0 | 11.0 | 0.00 | 0.00 | 0.00 | 70 | 1016.7 |
| 20260507211006 | 65 | 342 | 4.0 | 11.0 | 0.00 | 0.00 | 0.00 | 69 | 1016.8 |
| 20260507210502 | 65 | 327 | 4.0 | 10.0 | 0.00 | 0.00 | 0.00 | 69 | 1016.3 |
| 20260507210033 | 66 | 327 | 4.0 | 10.0 | 0.00 | 0.00 | 0.00 | 69 | 1016.5 |
| 20260507210016 | 66 | 12 | 3.0 | 7.0 | 0.00 | 0.00 | 0.00 | 69 | 1017.1 |
| 20260507205511 | 66 | 360 | 2.0 | 6.0 | 0.00 | 0.00 | 0.00 | 69 | 1017.1 |
| 20260507205508 | 66 | 327 | 2.0 | 8.0 | 0.00 | 0.00 | 0.00 | 69 | 1016.5 |
| 20260507205009 | 66 | 22 | 1.0 | 5.0 | 0.00 | 0.00 | 0.00 | 70 | 1017.1 |
| 20260507205007 | 66 | 321 | 2.0 | 6.0 | 0.00 | 0.00 | 0.00 | 70 | 1016.5 |
| 20260507204516 | 66 | 281 | 1.0 | 11.0 | 0.00 | 0.00 | 0.00 | 67 | 1017.2 |
| 20260507204514 | 66 | 343 | 1.0 | 11.0 | 0.00 | 0.00 | 0.00 | 67 | 1016.6 |
| 20260507204009 | 66 | 5 | 2.0 | 11.0 | 0.00 | 0.00 | 0.00 | 67 | 1017.0 |
| 20260507203512 | 66 | 332 | 5.0 | 12.0 | 0.00 | 0.00 | 0.00 | 66 | 1016.3 |
| 20260507203509 | 66 | 360 | 4.0 | 11.0 | 0.00 | 0.00 | 0.00 | 66 | 1016.9 |
| 20260507203013 | 67 | 316 | 2.0 | 9.0 | 0.00 | 0.00 | 0.00 | 67 | 1017.0 |
| 20260507203009 | 67 | 330 | 3.0 | 9.0 | 0.00 | 0.00 | 0.00 | 67 | 1016.4 |
| 20260507202507 | 66 | 360 | 3.0 | 9.0 | 0.00 | 0.00 | 0.00 | 69 | 1016.4 |
| 20260507202505 | 66 | 352 | 1.0 | 9.0 | 0.00 | 0.00 | 0.00 | 69 | 1017.0 |
| 20260507202011 | 65 | 333 | 1.0 | 8.0 | 0.00 | 0.00 | 0.00 | 70 | 1017.0 |
| 20260507202005 | 65 | 348 | 1.0 | 10.0 | 0.00 | 0.00 | 0.00 | 70 | 1016.5 |
| 20260507201518 | 65 | 5 | 2.0 | 8.0 | 0.00 | 0.00 | 0.00 | 69 | 1017.0 |
| 20260507201007 | 65 | 360 | 3.0 | 8.0 | 0.00 | 0.00 | 0.00 | 69 | 1017.1 |
| 20260507200508 | 65 | 348 | 3.0 | 8.0 | 0.00 | 0.00 | 0.00 | 73 | 1016.1 |
| 20260507200506 | 65 | 302 | 1.0 | 8.0 | 0.00 | 0.00 | 0.00 | 73 | 1016.7 |
| 20260507200027 | 64 | 340 | 2.0 | 6.0 | 0.00 | 0.00 | 0.00 | 74 | 1016.4 |
| 20260507200021 | 64 | 344 | 1.0 | 6.0 | 0.00 | 0.00 | 0.00 | 74 | 1017.1 |
| 20260507195506 | 64 | 323 | 2.0 | 12.0 | 0.00 | 0.00 | 0.00 | 72 | 1016.6 |
| 20260507195503 | 64 | 13 | 2.0 | 12.0 | 0.00 | 0.00 | 0.00 | 72 | 1017.2 |
| 20260507195007 | 65 | 44 | 3.0 | 12.0 | 0.00 | 0.00 | 0.00 | 72 | 1017.5 |
| 20260507194535 | 65 | 342 | 3.0 | 6.0 | 0.00 | 0.00 | 0.00 | 71 | 1017.2 |
| 20260507194526 | 65 | 291 | 2.0 | 9.0 | 0.00 | 0.00 | 0.00 | 70 | 1017.9 |
| 20260507194010 | 65 | 335 | 1.0 | 9.0 | 0.00 | 0.00 | 0.00 | 70 | 1017.9 |
| 20260507193506 | 64 | 340 | 5.0 | 10.0 | 0.00 | 0.00 | 0.00 | 69 | 1017.1 |
| 20260507193503 | 64 | 34 | 4.0 | 9.0 | 0.00 | 0.00 | 0.00 | 69 | 1017.7 |
| 20260507193027 | 65 | 321 | 2.0 | 9.0 | 0.00 | 0.00 | 0.00 | 72 | 1017.6 |
| 20260507193006 | 65 | 341 | 2.0 | 8.0 | 0.00 | 0.00 | 0.00 | 72 | 1018.2 |
| 20260507192510 | 64 | 340 | 3.0 | 10.0 | 0.00 | 0.00 | 0.00 | 70 | 1017.7 |
| 20260507192505 | 64 | 346 | 1.0 | 10.0 | 0.00 | 0.00 | 0.00 | 70 | 1018.3 |
| 20260507192011 | 64 | 322 | 2.0 | 10.0 | 0.00 | 0.00 | 0.00 | 69 | 1017.6 |
| 20260507192006 | 64 | 352 | 1.0 | 10.0 | 0.00 | 0.00 | 0.00 | 69 | 1018.2 |
| 20260507191514 | 65 | 40 | 2.0 | 11.0 | 0.00 | 0.00 | 0.00 | 68 | 1018.2 |
| 20260507191008 | 66 | 318 | 3.0 | 10.0 | 0.00 | 0.00 | 0.00 | 70 | 1018.2 |
| 20260507191004 | 66 | 338 | 3.0 | 10.0 | 0.00 | 0.00 | 0.00 | 70 | 1017.5 |
| 20260507190507 | 65 | 341 | 4.0 | 10.0 | 0.00 | 0.00 | 0.00 | 69 | 1017.4 |
| 20260507190017 | 66 | 12 | 4.0 | 9.0 | 0.00 | 0.00 | 0.00 | 69 | 1018.2 |
| 20260507185507 | 66 | 318 | 1.0 | 11.0 | 0.00 | 0.00 | 0.00 | 69 | 1018.2 |
| 20260507185010 | 66 | 312 | 5.0 | 10.0 | 0.00 | 0.00 | 0.00 | 68 | 1017.8 |
| 20260507185003 | 66 | 350 | 3.0 | 11.0 | 0.00 | 0.00 | 0.00 | 68 | 1018.4 |
| 20260507184526 | 67 | 322 | 5.0 | 10.0 | 0.00 | 0.00 | 0.00 | 67 | 1017.7 |
| 20260507184512 | 67 | 360 | 3.0 | 10.0 | 0.00 | 0.00 | 0.00 | 67 | 1018.3 |
| 20260507184007 | 67 | 328 | 3.0 | 10.0 | 0.00 | 0.00 | 0.00 | 68 | 1017.7 |
| 20260507184004 | 67 | 335 | 3.0 | 10.0 | 0.00 | 0.00 | 0.00 | 68 | 1018.4 |
| 20260507183511 | 67 | 325 | 2.0 | 10.0 | 0.00 | 0.00 | 0.00 | 68 | 1017.3 |
| 20260507183505 | 67 | 323 | 2.0 | 9.0 | 0.00 | 0.00 | 0.00 | 68 | 1017.9 |
| 20260507183034 | 67 | 352 | 4.0 | 10.0 | 0.00 | 0.00 | 0.00 | 67 | 1017.0 |
| 20260507183010 | 67 | 134 | 2.0 | 7.0 | 0.00 | 0.00 | 0.00 | 67 | 1017.7 |
| 20260507182509 | 67 | 323 | 2.0 | 12.0 | 0.00 | 0.00 | 0.00 | 71 | 1017.3 |
| 20260507182503 | 67 | 13 | 1.0 | 11.0 | 0.00 | 0.00 | 0.00 | 71 | 1018.0 |
| 20260507182013 | 66 | 15 | 3.0 | 12.0 | 0.00 | 0.00 | 0.00 | 67 | 1017.2 |
| 20260507182004 | 66 | 342 | 2.0 | 11.0 | 0.00 | 0.00 | 0.00 | 67 | 1017.9 |
| 20260507181525 | 67 | 343 | 2.0 | 11.0 | 0.00 | 0.00 | 0.00 | 68 | 1017.2 |
| 20260507181507 | 67 | 40 | 2.0 | 10.0 | 0.00 | 0.00 | 0.00 | 69 | 1017.9 |
| 20260507181015 | 67 | 330 | 3.0 | 11.0 | 0.00 | 0.00 | 0.00 | 67 | 1017.1 |
| 20260507181009 | 67 | 15 | 3.0 | 11.0 | 0.00 | 0.00 | 0.00 | 67 | 1017.8 |
| 20260507180507 | 67 | 17 | 3.0 | 12.0 | 0.00 | 0.00 | 0.00 | 67 | 1018.1 |
| 20260507180504 | 67 | 331 | 4.0 | 12.0 | 0.00 | 0.00 | 0.00 | 67 | 1017.4 |
| 20260507180015 | 66 | 19 | 3.0 | 12.0 | 0.00 | 0.00 | 0.00 | 68 | 1018.1 |
| 20260507180005 | 66 | 11 | 5.0 | 12.0 | 0.00 | 0.00 | 0.00 | 68 | 1017.4 |
| 20260507175508 | 66 | 73 | 1.0 | 6.0 | 0.00 | 0.00 | 0.00 | 69 | 1018.0 |
| 20260507175503 | 66 | 20 | 2.0 | 9.0 | 0.00 | 0.00 | 0.00 | 69 | 1017.3 |
| 20260507175007 | 66 | 291 | 2.0 | 7.0 | 0.00 | 0.00 | 0.00 | 68 | 1017.9 |
| 20260507175003 | 66 | 298 | 2.0 | 8.0 | 0.00 | 0.00 | 0.00 | 68 | 1017.3 |
| 20260507174540 | 66 | 52 | 1.0 | 11.0 | 0.00 | 0.00 | 0.00 | 69 | 1018.2 |
| 20260507174503 | 66 | 338 | 3.0 | 11.0 | 0.00 | 0.00 | 0.00 | 69 | 1017.5 |
| 20260507174007 | 65 | 61 | 2.0 | 11.0 | 0.00 | 0.00 | 0.00 | 69 | 1018.2 |
| 20260507174003 | 65 | 322 | 3.0 | 11.0 | 0.00 | 0.00 | 0.00 | 69 | 1017.7 |